Weather History for KFDK - April, 2013

Change the Weather History Date:

Thursday, April 25, 2013

  Actual Average (KHGR) Record (KHGR)
Temperature  
Mean Temperature 52 °F 56 °F  
Max Temperature 62 °F 66 °F 84 °F (2011)
Min Temperature 41 °F 46 °F 35 °F (1999)
Degree Days  
Heating Degree Days 14 10  
Month to date heating degree days 337  
Since 1 July heating degree days 4969  
Cooling Degree Days 0 1  
Month to date cooling degree days 7  
Year to date cooling degree days 8  
Growing Degree Days 2 (Base 50)    
Moisture  
Dew Point 36 °F    
Average Humidity 64    
Maximum Humidity 93    
Minimum Humidity 32    
Precipitation  
Precipitation 0.00 in 0.11 in 0.61 in (2004)
Month to date precipitation 3.02  
Year to date precipitation 11.63  
Sea Level Pressure  
Sea Level Pressure 30.23 in    
Wind  
Wind Speed 10 mph (NW)    
Max Wind Speed 18 mph    
Max Gust Speed 30 mph    
Visibility 10 miles    
Events      
T = Trace of Precipitation, MM = Missing Value Source: NWS Daily Summary

Daily Weather History Graph

Daily Weather History Graph

Search for Another Location

Airport or City:

Trip Planner

Search our weather history database for the weather conditions in past years. The results will help you decide how hot, cold, wet, or windy it might be!

Date:

Astronomy

Apr. 25, 2013 Rise Set
Actual Time 6:18 AM EDT 7:57 PM EDT
Civil Twilight 5:49 AM EDT 8:26 PM EDT
Nautical Twilight 5:15 AM EDT 9:00 PM EDT
Astronomical Twilight 4:38 AM EDT 9:37 PM EDT
Moon 8:07 PM EDT (4/25) 5:59 AM EDT (4/25)
Length of Visible Light 14h 36m
Length of Day
13h 39m
Full, 100% of the Moon is Illuminated
Apr 25
Full
Apr 25
Full
May 2
Last Quarter
May 9
New
May 18
First Quarter

Hourly Weather History & Observations

Time (EDT) Temp. Windchill Dew Point Humidity Pressure Visibility Wind Dir Wind Speed Gust Speed Precip Events Conditions
12:00 AM 53.6 °F - 44.6 °F 72% 30.05 in 10.0 mi WNW 18.4 mph 28.8 mph N/A   Overcast
12:20 AM 53.6 °F - 42.8 °F 67% 30.07 in 10.0 mi NW 18.4 mph 25.3 mph N/A   Overcast
12:40 AM 51.8 °F - 41.0 °F 67% 30.09 in 10.0 mi NW 10.4 mph 28.8 mph N/A   Overcast
1:00 AM 51.8 °F - 41.0 °F 67% 30.10 in 10.0 mi WNW 12.7 mph 24.2 mph N/A   Overcast
1:20 AM 51.8 °F - 37.4 °F 58% 30.11 in 10.0 mi WNW 16.1 mph 29.9 mph N/A   Overcast
1:40 AM 50.0 °F - 37.4 °F 62% 30.12 in 10.0 mi WNW 16.1 mph 25.3 mph N/A   Overcast
2:00 AM 50.0 °F - 37.4 °F 62% 30.12 in 10.0 mi WNW 15.0 mph 24.2 mph N/A   Overcast
2:20 AM 46.4 °F 39.2 °F 35.6 °F 66% 30.13 in 10.0 mi NW 18.4 mph - N/A   Mostly Cloudy
2:40 AM 46.4 °F 41.9 °F 35.6 °F 66% 30.13 in 10.0 mi WNW 9.2 mph 12.7 mph N/A   Mostly Cloudy
3:00 AM 46.4 °F 40.7 °F 33.8 °F 62% 30.15 in 10.0 mi West 12.7 mph 19.6 mph N/A   Overcast
3:20 AM 46.4 °F 40.1 °F 33.8 °F 62% 30.15 in 10.0 mi NNW 15.0 mph 25.3 mph N/A   Overcast
3:40 AM 44.6 °F 38.1 °F 33.8 °F 66% 30.16 in 10.0 mi NNW 13.8 mph - N/A   Overcast
4:00 AM 44.6 °F 38.8 °F 33.8 °F 66% 30.18 in 10.0 mi NNW 11.5 mph - N/A   Overcast
4:20 AM 44.6 °F 39.7 °F 33.8 °F 66% 30.19 in 10.0 mi NW 9.2 mph - N/A   Mostly Cloudy
4:40 AM 44.6 °F 42.2 °F 33.8 °F 66% 30.20 in 10.0 mi NNW 4.6 mph - N/A   Scattered Clouds
5:00 AM 42.8 °F 41.1 °F 33.8 °F 70% 30.21 in 10.0 mi NNW 3.5 mph - N/A   Scattered Clouds
5:20 AM 41.0 °F - 33.8 °F 76% 30.22 in 10.0 mi Calm Calm - N/A   Mostly Cloudy
5:40 AM 41.0 °F - 33.8 °F 76% 30.23 in 10.0 mi Calm Calm - N/A   Overcast
6:00 AM 42.8 °F 37.0 °F 33.8 °F 70% 30.25 in 10.0 mi North 10.4 mph - N/A   Overcast
6:20 AM 42.8 °F 36.6 °F 32.0 °F 66% 30.25 in 10.0 mi NW 11.5 mph - N/A   Mostly Cloudy
6:40 AM 42.8 °F 37.5 °F 32.0 °F 66% 30.26 in 10.0 mi North 9.2 mph - N/A   Scattered Clouds
6:45 AM 42.8 °F 38.0 °F 32.0 °F 66% 30.26 in 10.0 mi NW 8.1 mph - N/A   Scattered Clouds
6:52 AM 44.6 °F 41.4 °F 33.8 °F 66% 30.27 in 10.0 mi NNW 5.8 mph - N/A   Clear
7:47 AM 46.4 °F 44.3 °F 33.8 °F 62% 30.29 in 10.0 mi NNW 4.6 mph - N/A   Clear
8:46 AM 46.4 °F 42.9 °F 33.8 °F 62% 30.30 in 10.0 mi NNW 6.9 mph - N/A   Clear
9:55 AM 50.0 °F - 33.8 °F 54% 30.31 in 10.0 mi NW 9.2 mph - N/A   Clear
10:50 AM 51.8 °F - 33.8 °F 50% 30.32 in 10.0 mi NW 5.8 mph - N/A   Clear
11:45 AM 53.6 °F - 33.8 °F 47% 30.31 in 10.0 mi NNW 4.6 mph - N/A   Clear
12:50 PM 55.4 °F - 35.6 °F 47% 30.29 in 10.0 mi WNW 4.6 mph - N/A   Clear
1:55 PM 59.0 °F - 35.6 °F 42% 30.28 in 10.0 mi WNW 4.6 mph - N/A   Clear
2:55 PM 60.8 °F - 32.0 °F 34% 30.26 in 10.0 mi NNW 5.8 mph - N/A   Clear
3:50 PM 62.6 °F - 33.8 °F 34% 30.24 in 10.0 mi North 5.8 mph - N/A   Clear
4:46 PM 62.6 °F - 33.8 °F 34% 30.23 in 10.0 mi West 4.6 mph - N/A   Clear
5:55 PM 62.6 °F - 32.0 °F 32% 30.23 in 10.0 mi Calm Calm - N/A   Clear
7:50 PM 57.2 °F - 33.8 °F 41% 30.23 in 10.0 mi Calm Calm - N/A   Clear
9:05 PM 44.6 °F - 39.2 °F 81% 30.26 in 10.0 mi Calm Calm - N/A   Scattered Clouds
9:25 PM 46.4 °F - 39.2 °F 76% 30.28 in 10.0 mi Calm Calm - N/A   Scattered Clouds
9:45 PM 46.4 °F - 41.0 °F 81% 30.29 in 10.0 mi Calm Calm - N/A   Scattered Clouds
10:05 PM 44.6 °F - 41.0 °F 87% 30.30 in 10.0 mi Calm Calm - N/A   Clear
10:20 PM 41.0 °F - 39.2 °F 93% 30.32 in 10.0 mi Calm Calm - N/A   Scattered Clouds
10:45 PM 46.4 °F - 41.0 °F 81% 30.32 in 10.0 mi Calm Calm - N/A   Overcast
11:05 PM 44.6 °F 43.1 °F 39.2 °F 81% 30.32 in 10.0 mi SE 3.5 mph - N/A   Overcast
11:25 PM 44.6 °F 43.1 °F 41.0 °F 87% 30.33 in 10.0 mi SE 3.5 mph - N/A   Overcast
11:45 PM 44.6 °F - 41.0 °F 87% 30.33 in 10.0 mi Calm Calm - N/A   Overcast